Crater Lake Weather Center

Moon Phase Calendar



Crater Lake Water Level
Online Cameras

 


      

Current Conditions in Klamath
2/27/2024 11:00:45 PM

20°F
Feels Like 15
Clouds
Humidity
92%
Pressure
30.21"
Wind
3.5 mph (SW)
Dew Point
18°F
UV Index
0/10 (Low)
Visibility
6 mi

Hourly Forecast

Date & Time Tue, Feb 27
11:00 PM
Wed, Feb 28
12:00 AM
Wed, Feb 28
1:00 AM
Wed, Feb 28
2:00 AM
Wed, Feb 28
3:00 AM
Wed, Feb 28
4:00 AM
Wed, Feb 28
5:00 AM
Wed, Feb 28
6:00 AM
Wed, Feb 28
7:00 AM
Wed, Feb 28
8:00 AM
Wed, Feb 28
9:00 AM
Wed, Feb 28
10:00 AM
Wed, Feb 28
11:00 AM
Wed, Feb 28
12:00 PM
Wed, Feb 28
1:00 PM
Wed, Feb 28
2:00 PM
Wed, Feb 28
3:00 PM
Wed, Feb 28
4:00 PM
Wed, Feb 28
5:00 PM
Wed, Feb 28
6:00 PM
Wed, Feb 28
7:00 PM
Wed, Feb 28
8:00 PM
Wed, Feb 28
9:00 PM
Wed, Feb 28
10:00 PM
Wed, Feb 28
11:00 PM
Thu, Feb 29
12:00 AM
Thu, Feb 29
1:00 AM
Thu, Feb 29
2:00 AM
Thu, Feb 29
3:00 AM
Thu, Feb 29
4:00 AM
Thu, Feb 29
5:00 AM
Thu, Feb 29
6:00 AM
Thu, Feb 29
7:00 AM
Thu, Feb 29
8:00 AM
Thu, Feb 29
9:00 AM
Thu, Feb 29
10:00 AM
Thu, Feb 29
11:00 AM
Thu, Feb 29
12:00 PM
Thu, Feb 29
1:00 PM
Thu, Feb 29
2:00 PM
Thu, Feb 29
3:00 PM
Thu, Feb 29
4:00 PM
Thu, Feb 29
5:00 PM
Thu, Feb 29
6:00 PM
Thu, Feb 29
7:00 PM
Thu, Feb 29
8:00 PM
Thu, Feb 29
9:00 PM
Thu, Feb 29
10:00 PM
Condition
Clouds

Clouds

Clouds

Clouds

Clouds

Clouds

Clouds

Clouds

Clouds

Clouds

Clouds

Clouds

Clouds

Clouds

Clouds

Clouds

Clouds

Clouds

Clouds

Snow

Snow

Clouds

Clouds

Snow

Snow

Snow

Snow

Snow

Snow

Snow

Snow

Snow

Snow

Snow

Snow

Snow

Snow

Snow

Snow

Snow

Snow

Snow

Snow

Snow

Snow

Snow

Snow

Snow
Temperature 20°F21°F22°F23°F24°F24°F23°F23°F23°F28°F32°F34°F35°F37°F38°F38°F37°F35°F33°F31°F31°F32°F31°F31°F30°F30°F30°F30°F30°F30°F30°F30°F30°F29°F27°F24°F25°F25°F23°F23°F22°F23°F20°F19°F18°F19°F18°F19°F
Feels Like 15°F16°F17°F18°F20°F24°F23°F23°F23°F24°F27°F29°F30°F32°F33°F32°F30°F28°F26°F23°F23°F23°F23°F23°F23°F23°F23°F22°F22°F22°F21°F21°F20°F21°F17°F14°F13°F13°F10°F11°F10°F10°F8°F7°F8°F10°F8°F6°F
Cloudiness 100%100%100%100%100%100%100%100%100%100%100%100%100%100%100%98%96%95%100%96%95%95%92%92%100%99%100%100%100%100%100%100%100%99%99%99%100%100%100%98%95%96%93%97%96%95%94%95%
Visibility 6 mi6 mi6 mi5 mi6 mi6 mi6 mi6 mi6 mi6 mi6 mi6 mi6 mi6 mi6 mi6 mi6 mi6 mi6 mi6 mi4 mi6 mi6 mi5 mi0 mi0 mi0 mi0 mi0 mi0 mi0 mi0 mi0 mi1 mi0 mi0 mi1 mi0 mi0 mi0 mi0 mi1 mi0 mi0 mi1 mi1 mi0 mi0 mi
Precipitation 0%3%6%6%6%6%0%0%0%0%0%0%0%0%0%0%0%4%26%35%34%37%35%32%50%55%62%63%68%77%92%92%92%90%90%92%100%100%100%100%100%100%89%90%83%84%90%93%
Humidity 92%92%93%94%95%95%94%93%92%88%86%86%85%83%81%80%82%84%90%93%94%88%88%96%98%98%97%98%99%99%99%99%98%97%97%95%93%95%93%93%93%93%95%94%94%96%97%93%
Dew Point 18°F19°F21°F22°F23°F24°F23°F23°F22°F27°F30°F31°F33°F34°F34°F34°F33°F32°F32°F31°F31°F31°F30°F31°F32°F32°F32°F31°F31°F31°F31°F31°F31°F31°F28°F24°F25°F25°F23°F23°F22°F22°F20°F19°F18°F19°F19°F18°F
Pressure 30.21"30.21"30.18"30.18"30.15"30.12"30.12"30.12"30.09"30.06"30"29.97"29.94"29.88"29.85"29.83"29.83"29.8"29.83"29.8"29.8"29.77"29.77"29.77"29.74"29.71"29.68"29.65"29.62"29.59"29.56"29.5"29.47"29.44"29.5"29.56"29.56"29.59"29.68"29.65"29.65"29.65"29.68"29.68"29.71"29.68"29.71"29.71"
Wind Speed 3.5 mph3.8 mph3.9 mph3.8 mph3.3 mph2.8 mph2.6 mph2.8 mph2.9 mph3.9 mph5 mph5.6 mph6.2 mph6.4 mph7.8 mph9.4 mph9.8 mph9.6 mph8.8 mph9.3 mph9.4 mph11.1 mph9.6 mph8.7 mph8.3 mph7.9 mph8.1 mph8.7 mph9 mph8.6 mph9.2 mph10.2 mph11.5 mph9.8 mph9.8 mph8.5 mph13.2 mph14.2 mph16.1 mph14.6 mph14.3 mph13.6 mph15.8 mph12.3 mph8.9 mph6.3 mph7.6 mph13 mph
Wind
Direction
235°
SW
232°
SW
230°
SW
230°
SW
229°
SW
214°
SW
212°
SSW
215°
SW
206°
SSW
192°
SSW
195°
SSW
200°
SSW
208°
SSW
213°
SSW
215°
SW
227°
SW
230°
SW
229°
SW
222°
SW
218°
SW
221°
SW
210°
SSW
206°
SSW
207°
SSW
204°
SSW
201°
SSW
202°
SSW
206°
SSW
202°
SSW
200°
SSW
202°
SSW
199°
SSW
199°
SSW
208°
SSW
269°
W
240°
WSW
240°
WSW
239°
WSW
246°
WSW
239°
WSW
242°
WSW
233°
SW
244°
WSW
246°
WSW
234°
SW
199°
SSW
236°
SW
236°
SW

Daily Forecast

Date High Low Precip. Humidity
Today
Feb 27

Snow
27 °F
14 °F
64%
84%
Wednesday
Feb 28

Snow
38 °F
21 °F
50%
83%
Thursday
Feb 29

Snow
30 °F
18 °F
100%
95%
Friday
Mar 1

Snow
23 °F
13 °F
100%
85%
Saturday
Mar 2

Snow
19 °F
6 °F
97%
88%
Sunday
Mar 3

Snow
22 °F
7 °F
83%
93%
Monday
Mar 4

Snow
29 °F
20 °F
93%
99%
Tuesday
Mar 5

Snow
29 °F
21 °F
94%
100%
Wednesday
Mar 6

Snow
28 °F
13 °F
100%
95%
Thursday
Mar 7

Snow
29 °F
7 °F
49%
96%
Friday
Mar 8

Snow
32 °F
12 °F
34%
100%
Saturday
Mar 9

Snow
32 °F
22 °F
27%
99%
Sunday
Mar 10

Clouds
32 °F
21 °F
9%
99%
Monday
Mar 11

Clouds
31 °F
20 °F
6%
95%
Tuesday
Mar 12

Snow
31 °F
21 °F
62%
99%
Wednesday
Mar 13

Snow
32 °F
20 °F
20%
90%

Temperature 8-14 Day Outlook



Precipitation 8-14 Day Outlook




Quick Links
Crater Lake News
Crater Lake Photos
Crater Lake Videos




About Us
Contact Us
Site Map
Search Site
Advertise With Us
   
Crater.USLakes.info
THE CRATER LAKE WEBSITE

Copyright 2024, Lakes Online
Privacy    |    Legal